Date String (YYYY-MM-DD hh:mm:ss) UTC,Instrument flags,Ambient pressure (hPa),Sample flow (lpm),Bypass flow (lpm),Sample temperature (°C),Ambient temperature (°C),ASC tube jacket temperature (°C),LED temperature (°C),Box temperature (°C),Sample RH (%),Span deviation,Mass concentration (μg/m³),Mass concentration (μg/m³),Mass concentration (μg/m³)
DateTimeUTC,F1_M11,P_M11,Q1_M11,Q2_M11,T1_M11,T2_M11,T3_M11,T4_M11,T5_M11,U1_M11,ZSPAN_M11,X0_M11,X2_M11,X1_M11
2022-09-01 11:00:00,,0829.6,5.00,0.00,30.5,29.1,00.0,39.4,32.2,18.8,0000.0,0013.89,0005.69,0004.74
2022-09-01 11:01:00,,0829.6,5.00,0.00,30.5,29.1,00.0,39.4,32.2,18.9,0000.0,0014.27,0005.73,0004.77
2022-09-01 11:02:00,,0829.6,5.00,0.00,30.4,29.1,00.0,39.4,32.2,18.6,0000.0,0014.93,0005.70,0004.76
2022-09-01 11:03:00,,0829.6,5.00,0.00,30.4,29.0,00.0,39.4,32.2,18.9,0000.0,0015.36,0005.62,0004.71
2022-09-01 11:04:00,,0829.6,5.00,0.00,30.4,29.1,00.0,39.4,32.2,19.4,0000.0,0014.61,0005.59,0004.68
2022-09-01 11:05:00,,0829.6,5.00,0.00,30.4,29.1,00.0,39.4,32.2,19.1,0000.0,0014.52,0005.59,0004.66
2022-09-01 11:06:00,,0829.6,5.00,0.00,30.4,29.1,00.0,39.3,32.2,19.5,0000.0,0014.27,0005.63,0004.65
2022-09-01 11:07:00,,0829.8,5.01,0.00,30.4,29.0,00.0,39.3,32.1,20.2,0000.0,0014.07,0005.62,0004.65
2022-09-01 11:08:00,,0829.6,5.00,0.00,30.4,29.0,00.0,39.3,32.1,20.2,0000.0,0014.60,0005.68,0004.66
2022-09-01 11:09:00,,0829.6,5.00,0.00,30.4,29.0,00.0,39.3,32.1,20.4,0000.0,0015.20,0005.73,0004.70
2022-09-01 11:10:00,,0829.7,5.00,0.00,30.4,29.1,00.0,39.3,32.2,20.5,0000.0,0015.14,0005.81,0004.75
2022-09-01 11:11:00,,0829.7,5.00,0.00,30.4,29.1,00.0,39.3,32.2,20.4,0000.0,0014.97,0005.88,0004.80
2022-09-01 11:12:00,,0829.6,5.01,0.00,30.4,29.1,00.0,39.3,32.2,20.3,0000.0,0014.70,0005.94,0004.84
2022-09-01 11:13:00,,0829.7,5.00,0.00,30.4,29.0,00.0,39.3,32.2,20.0,0000.0,0014.63,0006.05,0004.88
2022-09-01 11:14:00,,0829.8,5.00,0.00,30.4,29.0,00.0,39.3,32.2,20.0,0000.0,0014.09,0006.13,0004.93
2022-09-01 11:15:00,,0829.6,5.00,0.00,30.4,29.0,00.0,39.3,32.1,20.0,0000.0,0014.42,0006.16,0004.95
2022-09-01 11:16:00,,0829.6,5.00,0.00,30.4,29.0,00.0,39.3,32.1,20.0,0000.0,0014.67,0006.19,0004.97
2022-09-01 11:17:00,,0829.7,5.01,0.00,30.4,29.0,00.0,39.3,32.1,19.9,0000.0,0015.32,0006.24,0004.99
2022-09-01 11:18:00,,0829.7,5.00,0.00,30.4,29.0,00.0,39.3,32.1,19.8,0000.0,0015.37,0006.28,0004.99
2022-09-01 11:19:00,,0829.7,5.00,0.00,30.4,29.1,00.0,39.3,32.1,19.8,0000.0,0015.98,0006.29,0005.00
2022-09-01 11:20:00,,0829.7,5.00,0.00,30.4,29.1,00.0,39.3,32.2,19.9,0000.0,0015.63,0006.26,0004.99
2022-09-01 11:21:00,,0829.7,4.98,0.00,30.4,29.1,00.0,39.3,32.2,19.9,0000.0,0016.83,0006.27,0004.98
2022-09-01 11:22:00,,0829.6,5.00,0.00,30.4,29.0,00.0,39.3,32.2,20.0,0000.0,0018.53,0006.21,0004.96
2022-09-01 11:23:00,,0829.6,5.01,0.00,30.4,29.0,00.0,39.3,32.1,19.9,0000.0,0018.64,0006.20,0004.94
2022-09-01 11:24:00,,0829.6,5.00,0.00,30.4,29.0,00.0,39.3,32.1,20.0,0000.0,0017.87,0006.13,0004.94
2022-09-01 11:25:00,,0829.8,5.00,0.00,30.4,29.0,00.0,39.3,32.1,19.9,0000.0,0017.67,0006.12,0004.93
2022-09-01 11:26:00,,0829.6,5.01,0.00,30.4,29.0,00.0,39.3,32.1,19.9,0000.0,0017.40,0006.11,0004.94
2022-09-01 11:27:00,,0829.6,5.00,0.00,30.4,28.9,00.0,39.3,32.1,20.0,0000.0,0017.16,0006.11,0004.95
2022-09-01 11:28:00,,0829.6,5.00,0.00,30.4,29.0,00.0,39.3,32.1,19.9,0000.0,0017.19,0006.03,0004.94
2022-09-01 11:29:00,,0829.6,5.00,0.00,30.3,28.9,00.0,39.3,32.1,19.9,0000.0,0017.29,0006.01,0004.93
2022-09-01 11:30:00,,0829.8,5.00,0.00,30.3,28.9,00.0,39.3,32.1,19.8,0000.0,0016.87,0005.98,0004.93
2022-09-01 11:31:00,,0829.8,5.00,0.00,30.3,29.0,00.0,39.3,32.1,19.9,0000.0,0017.04,0006.01,0004.92
2022-09-01 11:32:00,,0829.6,5.00,0.00,30.3,28.9,00.0,39.3,32.1,19.9,0000.0,0016.16,0005.98,0004.92
2022-09-01 11:33:00,,0829.6,5.00,0.00,30.3,28.9,00.0,39.3,32.1,19.9,0000.0,0014.57,0006.03,0004.92
2022-09-01 11:34:00,,0829.6,5.01,0.00,30.3,29.0,00.0,39.3,32.1,19.9,0000.0,0014.88,0006.05,0004.92
2022-09-01 11:35:00,,0829.8,4.98,0.00,30.3,29.0,00.0,39.3,32.1,19.9,0000.0,0016.03,0006.10,0004.93
2022-09-01 11:36:00,,0829.7,5.01,0.00,30.3,29.0,00.0,39.2,32.1,19.9,0000.0,0016.26,0006.11,0004.92
2022-09-01 11:37:00,,0829.7,5.01,0.00,30.3,28.9,00.0,39.2,32.1,19.8,0000.0,0017.02,0006.15,0004.90
2022-09-01 11:38:00,,0829.6,5.00,0.00,30.3,28.9,00.0,39.2,32.0,19.8,0000.0,0016.94,0006.16,0004.91
2022-09-01 11:39:00,,0829.6,5.00,0.00,30.3,28.9,00.0,39.2,32.0,19.8,0000.0,0016.52,0006.15,0004.90
2022-09-01 11:40:00,,0829.5,4.99,0.00,30.3,28.9,00.0,39.2,32.0,19.7,0000.0,0016.94,0006.17,0004.91
2022-09-01 11:41:00,,0829.5,4.99,0.00,30.3,28.9,00.0,39.2,32.0,19.7,0000.0,0016.35,0006.15,0004.90
2022-09-01 11:42:00,,0829.5,5.00,0.00,30.3,28.9,00.0,39.2,32.0,19.6,0000.0,0015.91,0006.10,0004.90
2022-09-01 11:43:00,,0829.6,5.00,0.00,30.3,28.9,00.0,39.2,32.0,19.6,0000.0,0016.10,0006.12,0004.90
2022-09-01 11:44:00,,0829.5,5.00,0.00,30.3,28.9,00.0,39.2,32.0,19.6,0000.0,0016.10,0006.12,0004.90
2022-09-01 11:45:00,,0829.6,5.01,0.00,30.3,28.8,00.0,39.2,32.0,19.6,0000.0,0016.32,0006.08,0004.89
2022-09-01 11:46:00,,0829.6,5.00,0.00,30.3,28.8,00.0,39.2,32.0,19.7,0000.0,0016.22,0006.03,0004.87
2022-09-01 11:47:00,,0829.5,5.00,0.00,30.3,28.9,00.0,39.2,32.0,19.7,0000.0,0016.79,0006.03,0004.88
2022-09-01 11:48:00,,0829.5,5.00,0.00,30.3,29.0,00.0,39.2,32.0,19.7,0000.0,0017.56,0006.00,0004.89
2022-09-01 11:49:00,,0829.5,5.00,0.00,30.3,29.0,00.0,39.2,32.0,19.6,0000.0,0017.85,0005.97,0004.88
2022-09-01 11:50:00,,0829.5,4.98,0.00,30.3,28.9,00.0,39.2,32.0,19.6,0000.0,0017.73,0006.01,0004.87
2022-09-01 11:51:00,,0829.5,5.00,0.00,30.3,28.9,00.0,39.2,32.0,19.5,0000.0,0017.78,0006.04,0004.87
2022-09-01 11:52:00,,0829.5,5.00,0.00,30.3,29.0,00.0,39.2,32.0,19.4,0000.0,0018.30,0006.06,0004.88
2022-09-01 11:53:00,,0829.5,5.00,0.00,30.3,29.0,00.0,39.2,32.0,19.5,0000.0,0018.47,0006.05,0004.87
2022-09-01 11:54:00,,0829.5,5.00,0.00,30.3,28.9,00.0,39.2,32.0,19.5,0000.0,0018.01,0005.99,0004.86
2022-09-01 11:55:00,,0829.6,4.99,0.00,30.3,28.9,00.0,39.2,32.0,19.5,0000.0,0017.66,0006.00,0004.87
2022-09-01 11:56:00,,0829.5,5.00,0.00,30.3,29.0,00.0,39.2,32.0,19.5,0000.0,0017.81,0006.00,0004.88
2022-09-01 11:57:00,,0829.5,5.00,0.00,30.3,29.0,00.0,39.2,32.0,19.5,0000.0,0016.56,0006.01,0004.88
2022-09-01 11:58:00,,0829.6,5.00,0.00,30.3,29.0,00.0,39.2,32.1,19.5,0000.0,0017.83,0006.00,0004.87
2022-09-01 11:59:00,,0829.5,5.01,0.00,30.3,29.0,00.0,39.2,32.1,19.3,0000.0,0017.35,0005.99,0004.86
